Starlink 5328

operational
NORAD ID: 55657 Int'l Des: 2023-021 Owner: SPXS Country: US Constellation: starlink
LEOCIRCULAR

Starlink 5328について

説明を読み込み中...

リアルタイム位置

3D地球を読み込み中...

次回通過

高度履歴

Altitude vs Time

uPlot chart will show altitude changes over time

軌道要素

1 55657U 23021AF 26062.50169994 .00000274 00000-0 30718-4 0 9991
2 55657 70.0012 180.2191 0003143 267.0025 93.0775 14.98330126168356
Epoch: Mar 3, 2026 • Age: 17 hours

現在のステータス

高度 594.6 km
速度 7.56 km/s
衛星直下点 -66.71°S, 73.51°E
打ち上げ日 Feb 17, 2023
運用期間 3 years
タイプ internet

技術仕様

分類 Payload
質量 305.00 kg
乾燥質量 290.00 kg
総質量 305.00 kg
長さ 0.20 m
直径 2.80 m
スパン 9.00 m
形状 Box + pan
製造者 SPXS
バスタイプ Starlink
フェーズステータス In Orbit
所有者/国 SPXS/US

大規模コンステレーション

Loading constellations...